Location: 10033 Water Well
(34.0865°N, 106.8959°W)
Time: 17:23:23
(UTC+00:00)

Cosmos 2218 Rocket - Pass Details

Date: 13 January 2026
Orbit: 955 x 1005 km, 82.9° (Epoch: 10 February)

Event Time Altitude Azimuth Distance (km) Brightness Sun altitude
Rises 00:46:21 0° 2° (N) 3,737 6.8 -6.1°
Reaches altitude 10° 00:49:03 10° 9° (N) 2,784 6.1 -6.6°
Maximum altitude 00:55:05 42° 79° (E) 1,388 4.4 -7.7°
Drops below altitude 10° 01:01:03 10° 149° (SSE) 2,757 6.3 -8.9°
Sets 01:03:42 0° 156° (SSE) 3,696 7.0 -9.4°
